| time (UTC) | temp F | wind direction | speed knots | gust knots | rain 1hr in | rain 24hr in | rain mn in | humidity % | barometer mb |
| 20260507132828 | 61 | 88 | 1.7 | 4.3 | 0.00 | 0.00 | 0.00 | 56 | 1003.8 |
| 20260507131828 | 60 | 55 | 0.9 | 1.7 | 0.00 | 0.00 | 0.00 | 57 | 1003.6 |
| 20260507130827 | 60 | 122 | 3.5 | 7.0 | 0.00 | 0.00 | 0.00 | 57 | 1003.8 |
| 20260507125819 | 59 | 113 | 0.0 | 1.7 | 0.00 | 0.00 | 0.00 | 58 | 1004.0 |
| 20260507124827 | 59 | 66 | 0.0 | 1.7 | 0.00 | 0.00 | 0.00 | 60 | 1004.0 |
| 20260507123827 | 58 | 0.0 | 0.0 | 0.00 | 0.00 | 0.00 | 60 | 1004.0 | |
| 20260507122827 | 57 | 0.0 | 0.0 | 0.00 | 0.00 | 0.00 | 61 | 1003.9 | |
| 20260507121819 | 57 | 131 | 0.9 | 4.3 | 0.00 | 0.00 | 0.00 | 64 | 1003.9 |
| 20260507120827 | 57 | 0.0 | 0.0 | 0.00 | 0.00 | 0.00 | 65 | 1004.1 | |
| 20260507115827 | 57 | 0.0 | 0.0 | 0.00 | 0.00 | 0.00 | 64 | 1004.3 | |
| 20260507114827 | 57 | 0.0 | 0.0 | 0.00 | 0.00 | 0.00 | 64 | 1004.3 | |
| 20260507113820 | 57 | 0.0 | 0.0 | 0.00 | 0.00 | 0.00 | 63 | 1004.3 | |
| 20260507112828 | 57 | 0.0 | 0.0 | 0.00 | 0.00 | 0.00 | 65 | 1004.3 | |
| 20260507111828 | 57 | 5 | 0.9 | 1.7 | 0.00 | 0.00 | 0.00 | 65 | 1004.3 |
| 20260507110827 | 57 | 126 | 0.9 | 4.3 | 0.00 | 0.00 | 0.00 | 63 | 1004.3 |
| 20260507105848 | 57 | 0.0 | 0.0 | 0.00 | 0.00 | 0.00 | 63 | 1004.7 | |
| 20260507104827 | 56 | 42 | 0.9 | 1.7 | 0.00 | 0.00 | 0.00 | 64 | 1004.7 |
| 20260507103839 | 56 | 135 | 0.9 | 4.3 | 0.00 | 0.00 | 0.00 | 66 | 1004.7 |
| 20260507102827 | 56 | 59 | 0.9 | 1.7 | 0.00 | 0.00 | 0.00 | 66 | 1004.7 |
| 20260507101827 | 57 | 91 | 0.9 | 1.7 | 0.00 | 0.00 | 0.00 | 67 | 1004.7 |
| 20260507100827 | 57 | 114 | 0.9 | 1.7 | 0.00 | 0.00 | 0.00 | 66 | 1004.7 |
| 20260507095819 | 57 | 73 | 0.9 | 1.7 | 0.00 | 0.00 | 0.00 | 65 | 1004.7 |
| 20260507094827 | 57 | 131 | 2.6 | 4.3 | 0.00 | 0.00 | 0.00 | 65 | 1004.7 |
| 20260507093827 | 57 | 0.0 | 0.0 | 0.00 | 0.00 | 0.00 | 65 | 1004.7 | |
| 20260507092827 | 57 | 95 | 1.7 | 4.3 | 0.00 | 0.00 | 0.00 | 66 | 1004.7 |
| 20260507091819 | 56 | 182 | 0.9 | 4.3 | 0.00 | 0.00 | 0.00 | 67 | 1004.7 |
| 20260507090827 | 56 | 33 | 0.9 | 1.7 | 0.00 | 0.00 | 0.00 | 68 | 1004.7 |
| 20260507085827 | 55 | 0.0 | 0.0 | 0.00 | 0.00 | 0.00 | 69 | 1004.7 | |
| 20260507084827 | 55 | 64 | 0.0 | 1.7 | 0.00 | 0.00 | 0.00 | 71 | 1004.7 |
| 20260507083839 | 55 | 134 | 2.6 | 4.3 | 0.00 | 0.00 | 0.00 | 71 | 1004.7 |
| 20260507082827 | 54 | 0.0 | 0.0 | 0.00 | 0.00 | 0.00 | 72 | 1004.7 | |
| 20260507081827 | 54 | 0.0 | 0.0 | 0.00 | 0.00 | 0.00 | 71 | 1004.7 | |
| 20260507080827 | 54 | 62 | 0.9 | 4.3 | 0.00 | 0.00 | 0.00 | 74 | 1004.7 |
| 20260507075819 | 54 | 0.0 | 0.0 | 0.00 | 0.00 | 0.00 | 73 | 1004.7 | |
| 20260507074828 | 54 | 67 | 0.9 | 1.7 | 0.00 | 0.00 | 0.00 | 73 | 1004.7 |
| 20260507073848 | 53 | 116 | 0.9 | 1.7 | 0.00 | 0.00 | 0.00 | 70 | 1004.7 |
| 20260507072937 | 52 | 113 | 0.0 | 1.7 | 0.00 | 0.00 | 0.00 | 72 | 1004.8 |
| 20260507071819 | 51 | 355 | 0.0 | 1.7 | 0.00 | 0.00 | 0.00 | 74 | 1005.0 |
| 20260507070827 | 49 | 94 | 0.9 | 1.7 | 0.00 | 0.00 | 0.00 | 75 | 1004.8 |
| 20260507065828 | 48 | 0.0 | 0.0 | 0.00 | 0.00 | 0.00 | 77 | 1004.8 | |
| 20260507064827 | 47 | 0.0 | 0.0 | 0.00 | 0.00 | 0.00 | 79 | 1004.6 | |
| 20260507063819 | 46 | 0.0 | 0.0 | 0.00 | 0.00 | 0.00 | 82 | 1004.6 | |
| 20260507062827 | 45 | 0.0 | 0.0 | 0.00 | 0.00 | 0.00 | 82 | 1004.8 | |
| 20260507061828 | 43 | 0.0 | 0.0 | 0.00 | 0.00 | 0.00 | 87 | 1004.6 | |
| 20260507060847 | 40 | 0.0 | 0.0 | 0.00 | 0.00 | 0.00 | 93 | 1004.6 | |
| 20260507055839 | 39 | 0.0 | 0.0 | 0.00 | 0.00 | 0.00 | 95 | 1004.6 | |
| 20260507054847 | 38 | 0.0 | 0.0 | 0.00 | 0.00 | 0.00 | 95 | 1004.5 | |
| 20260507053820 | 37 | 0.0 | 0.0 | 0.00 | 0.00 | 0.00 | 96 | 1004.5 | |
| 20260507052827 | 36 | 0.0 | 0.0 | 0.00 | 0.00 | 0.00 | 96 | 1004.4 | |
| 20260507051828 | 36 | 0.0 | 0.0 | 0.00 | 0.00 | 0.00 | 96 | 1004.2 | |
| 20260507050827 | 35 | 0.0 | 0.0 | 0.00 | 0.00 | 0.00 | 96 | 1003.8 | |
| 20260507045820 | 35 | 0.0 | 0.0 | 0.00 | 0.00 | 0.00 | 96 | 1004.2 | |
| 20260507044827 | 35 | 0.0 | 0.0 | 0.00 | 0.00 | 0.00 | 96 | 1004.2 | |
| 20260507043827 | 34 | 0.0 | 0.0 | 0.00 | 0.00 | 0.00 | 96 | 1004.0 | |
| 20260507042827 | 34 | 0.0 | 0.0 | 0.00 | 0.00 | 0.00 | 96 | 1004.1 | |
| 20260507041819 | 34 | 0.0 | 0.0 | 0.00 | 0.00 | 0.00 | 96 | 1004.2 | |
| 20260507040847 | 34 | 0.0 | 0.0 | 0.00 | 0.00 | 0.00 | 96 | 1004.0 | |
| 20260507035827 | 35 | 0.0 | 0.0 | 0.00 | 0.00 | 0.00 | 96 | 1004.2 | |
| 20260507034847 | 35 | 0.0 | 0.0 | 0.00 | 0.00 | 0.00 | 96 | 1004.2 | |
| 20260507033819 | 35 | 0.0 | 0.0 | 0.00 | 0.00 | 0.00 | 96 | 1004.2 | |
| 20260507032827 | 35 | 0.0 | 0.0 | 0.00 | 0.00 | 0.00 | 96 | 1004.2 | |
| 20260507031827 | 36 | 0.0 | 0.0 | 0.00 | 0.00 | 0.00 | 95 | 1004.2 | |
| 20260507030846 | 36 | 0.0 | 0.0 | 0.00 | 0.00 | 0.00 | 95 | 1004.3 | |
| 20260507025819 | 36 | 0.0 | 0.0 | 0.00 | 0.00 | 0.00 | 95 | 1004.2 | |
| 20260507024827 | 36 | 0.0 | 0.0 | 0.00 | 0.00 | 0.00 | 95 | 1004.0 | |
| 20260507023828 | 36 | 0.0 | 0.0 | 0.00 | 0.00 | 0.00 | 95 | 1004.0 | |
| 20260507022826 | 36 | 0.0 | 0.0 | 0.00 | 0.00 | 0.00 | 95 | 1003.9 | |
| 20260507021819 | 36 | 0.0 | 0.0 | 0.00 | 0.00 | 0.00 | 94 | 1003.9 | |
| 20260507020828 | 36 | 0.0 | 0.0 | 0.00 | 0.00 | 0.00 | 94 | 1004.2 | |
| 20260507015827 | 36 | 0.0 | 0.0 | 0.00 | 0.00 | 0.00 | 94 | 1004.2 | |
| 20260507014826 | 37 | 0.0 | 0.0 | 0.00 | 0.00 | 0.00 | 94 | 1004.2 | |
| 20260507013839 | 37 | 0.0 | 0.0 | 0.00 | 0.00 | 0.00 | 94 | 1004.2 | |
| 20260507012847 | 37 | 0.0 | 0.0 | 0.00 | 0.00 | 0.00 | 94 | 1004.2 | |
| 20260507011827 | 37 | 0.0 | 0.0 | 0.00 | 0.00 | 0.00 | 94 | 1004.2 | |
| 20260507010826 | 37 | 0.0 | 0.0 | 0.00 | 0.00 | 0.00 | 94 | 1004.2 | |
| 20260507005819 | 37 | 0.0 | 0.0 | 0.00 | 0.00 | 0.00 | 93 | 1004.2 | |
| 20260507004827 | 37 | 0.0 | 0.0 | 0.00 | 0.00 | 0.00 | 93 | 1004.2 | |
| 20260507003827 | 38 | 0.0 | 0.0 | 0.00 | 0.00 | 0.00 | 93 | 1004.4 | |
| 20260507002846 | 38 | 0.0 | 0.0 | 0.00 | 0.00 | 0.00 | 93 | 1004.5 | |
| 20260507001819 | 38 | 0.0 | 0.0 | 0.00 | 0.00 | 0.00 | 92 | 1004.6 | |
| 20260507000827 | 38 | 0.0 | 0.0 | 0.00 | 0.00 | 0.00 | 92 | 1004.4 | |
| 20260506235827 | 39 | 0.0 | 0.0 | 0.00 | 0.00 | 0.00 | 91 | 1004.6 | |
| 20260506234827 | 39 | 0.0 | 0.0 | 0.00 | 0.00 | 0.00 | 91 | 1004.5 | |
| 20260506233848 | 39 | 0.0 | 0.0 | 0.00 | 0.00 | 0.00 | 90 | 1004.5 | |
| 20260506232827 | 40 | 0.0 | 0.0 | 0.00 | 0.00 | 0.00 | 90 | 1004.6 | |
| 20260506231827 | 40 | 0.0 | 0.0 | 0.00 | 0.00 | 0.00 | 90 | 1004.6 | |
| 20260506230826 | 40 | 0.0 | 0.0 | 0.00 | 0.00 | 0.00 | 90 | 1004.6 | |
| 20260506225839 | 41 | 0.0 | 0.0 | 0.00 | 0.00 | 0.00 | 90 | 1004.6 | |
| 20260506224827 | 41 | 0.0 | 0.0 | 0.00 | 0.00 | 0.00 | 89 | 1004.6 | |
| 20260506223828 | 41 | 0.0 | 0.0 | 0.00 | 0.00 | 0.00 | 89 | 1004.6 | |
| 20260506222846 | 41 | 0.0 | 0.0 | 0.00 | 0.00 | 0.00 | 89 | 1004.6 | |
| 20260506221818 | 41 | 0.0 | 0.0 | 0.00 | 0.00 | 0.00 | 88 | 1004.6 | |
| 20260506220827 | 41 | 0.0 | 0.0 | 0.00 | 0.00 | 0.00 | 88 | 1004.6 | |
| 20260506215827 | 42 | 0.0 | 0.0 | 0.00 | 0.00 | 0.00 | 87 | 1004.6 | |
| 20260506214826 | 42 | 0.0 | 0.0 | 0.00 | 0.00 | 0.00 | 87 | 1004.6 | |
| 20260506213818 | 42 | 0.0 | 0.0 | 0.00 | 0.00 | 0.00 | 85 | 1004.6 | |
| 20260506212848 | 43 | 0.0 | 0.0 | 0.00 | 0.00 | 0.00 | 84 | 1004.6 | |
| 20260506211827 | 43 | 0.0 | 0.0 | 0.00 | 0.00 | 0.00 | 83 | 1004.6 | |
| 20260506210826 | 44 | 0.0 | 0.0 | 0.00 | 0.00 | 0.00 | 83 | 1004.6 | |
| 20260506205818 | 44 | 0.0 | 0.0 | 0.00 | 0.00 | 0.00 | 81 | 1004.6 | |
| 20260506204827 | 45 | 0.0 | 0.0 | 0.00 | 0.00 | 0.00 | 81 | 1004.6 | |
| 20260506203827 | 45 | 0.0 | 0.0 | 0.00 | 0.00 | 0.00 | 80 | 1004.4 | |
| 20260506202826 | 46 | 0.0 | 0.0 | 0.00 | 0.00 | 0.00 | 79 | 1004.3 | |
| 20260506201818 | 46 | 0.0 | 0.0 | 0.00 | 0.00 | 0.00 | 79 | 1004.3 | |
| 20260506200827 | 47 | 139 | 0.9 | 1.7 | 0.00 | 0.00 | 0.00 | 77 | 1004.3 |
| 20260506195827 | 48 | 160 | 1.7 | 4.3 | 0.00 | 0.00 | 0.00 | 76 | 1004.0 |
| 20260506194826 | 48 | 0.0 | 0.0 | 0.00 | 0.00 | 0.00 | 75 | 1004.0 | |
| 20260506193839 | 49 | 132 | 4.3 | 7.0 | 0.00 | 0.00 | 0.00 | 75 | 1004.0 |
| 20260506192827 | 49 | 0.0 | 0.0 | 0.00 | 0.00 | 0.00 | 73 | 1004.0 | |
| 20260506191827 | 49 | 150 | 0.9 | 1.7 | 0.00 | 0.00 | 0.00 | 73 | 1003.9 |
| 20260506190826 | 49 | 0.0 | 0.0 | 0.00 | 0.00 | 0.00 | 72 | 1003.9 | |
| 20260506185818 | 49 | 153 | 0.0 | 1.7 | 0.00 | 0.00 | 0.00 | 72 | 1003.9 |
| 20260506184827 | 49 | 76 | 0.0 | 1.7 | 0.00 | 0.00 | 0.00 | 73 | 1003.9 |
| 20260506183830 | 50 | 0.0 | 0.0 | 0.00 | 0.00 | 0.00 | 72 | 1003.9 | |
| 20260506182826 | 50 | 0.0 | 0.0 | 0.00 | 0.00 | 0.00 | 70 | 1003.9 | |
| 20260506181818 | 50 | 73 | 0.9 | 1.7 | 0.00 | 0.00 | 0.00 | 70 | 1003.9 |
| 20260506180848 | 50 | 0.0 | 0.0 | 0.00 | 0.00 | 0.00 | 69 | 1003.5 | |
| 20260506175827 | 50 | 0.0 | 0.0 | 0.00 | 0.00 | 0.00 | 69 | 1003.8 | |
| 20260506174831 | 50 | 75 | 0.0 | 1.7 | 0.00 | 0.00 | 0.00 | 69 | 1003.5 |
| 20260506173818 | 51 | 83 | 2.6 | 4.3 | 0.00 | 0.00 | 0.00 | 68 | 1003.5 |
| 20260506172827 | 51 | 0.0 | 0.0 | 0.00 | 0.00 | 0.00 | 68 | 1003.5 | |
| 20260506171827 | 51 | 71 | 0.0 | 1.7 | 0.00 | 0.00 | 0.00 | 67 | 1003.5 |
| 20260506170826 | 52 | 34 | 0.0 | 1.7 | 0.00 | 0.00 | 0.00 | 67 | 1003.2 |
| 20260506165838 | 52 | 102 | 0.9 | 1.7 | 0.00 | 0.00 | 0.00 | 65 | 1003.5 |
| 20260506164828 | 53 | 70 | 0.9 | 1.7 | 0.00 | 0.00 | 0.00 | 64 | 1003.2 |
| 20260506163827 | 53 | 83 | 0.9 | 1.7 | 0.00 | 0.00 | 0.00 | 63 | 1003.5 |
| 20260506162826 | 53 | 0.0 | 0.0 | 0.00 | 0.00 | 0.00 | 64 | 1003.2 | |
| 20260506161818 | 53 | 114 | 0.9 | 1.7 | 0.00 | 0.00 | 0.00 | 64 | 1003.3 |
| 20260506160827 | 54 | 23 | 0.9 | 4.3 | 0.00 | 0.00 | 0.00 | 64 | 1003.5 |
| 20260506155827 | 54 | 112 | 0.9 | 4.3 | 0.00 | 0.00 | 0.00 | 61 | 1003.6 |
| 20260506154826 | 55 | 90 | 0.0 | 1.7 | 0.00 | 0.00 | 0.00 | 60 | 1003.3 |
| 20260506153838 | 54 | 68 | 1.7 | 4.3 | 0.00 | 0.00 | 0.00 | 60 | 1003.3 |
| 20260506152847 | 54 | 143 | 1.7 | 4.3 | 0.00 | 0.00 | 0.00 | 62 | 1003.3 |
| 20260506151827 | 53 | 109 | 0.9 | 1.7 | 0.00 | 0.00 | 0.00 | 64 | 1003.6 |
| 20260506150826 | 54 | 352 | 3.5 | 7.0 | 0.00 | 0.00 | 0.00 | 65 | 1003.7 |
| 20260506145818 | 54 | 95 | 0.0 | 1.7 | 0.00 | 0.00 | 0.00 | 65 | 1003.3 |
| 20260506144827 | 53 | 189 | 0.9 | 4.3 | 0.00 | 0.00 | 0.00 | 62 | 1003.5 |
| 20260506143827 | 53 | 70 | 1.7 | 4.3 | 0.00 | 0.00 | 0.00 | 63 | 1003.7 |
| 20260506142826 | 54 | 28 | 1.7 | 7.0 | 0.00 | 0.00 | 0.00 | 65 | 1003.7 |
| 20260506141818 | 54 | 29 | 1.7 | 4.3 | 0.00 | 0.00 | 0.00 | 63 | 1003.7 |
| 20260506140907 | 54 | 51 | 1.7 | 4.3 | 0.00 | 0.00 | 0.00 | 63 | 1003.7 |
| 20260506135847 | 54 | 126 | 1.7 | 4.3 | 0.00 | 0.00 | 0.00 | 62 | 1003.4 |
| 20260506134826 | 55 | 12 | 5.2 | 8.7 | 0.00 | 0.00 | 0.00 | 61 | 1003.6 |
| 20260506133818 | 55 | 10 | 2.6 | 4.3 | 0.00 | 0.00 | 0.00 | 63 | 1003.7 |